| time (UTC) | temp F | wind direction | speed MPH | gust MPH | rain 1hr in | rain 24hr in | rain mn in | humidity % | barometer mb |
| 20260509161748 | 60 | 77 | 4.0 | 8.0 | 0.00 | 0.00 | 0.00 | 25 | 1019.5 |
| 20260509160748 | 61 | 53 | 7.0 | 8.0 | 0.00 | 0.00 | 0.00 | 24 | 1019.7 |
| 20260509155747 | 63 | 66 | 5.0 | 8.0 | 0.00 | 0.00 | 0.00 | 24 | 1019.9 |
| 20260509154747 | 65 | 55 | 6.0 | 8.0 | 0.00 | 0.00 | 0.00 | 23 | 1020.0 |
| 20260509153747 | 64 | 51 | 6.0 | 10.0 | 0.00 | 0.00 | 0.00 | 24 | 1019.9 |
| 20260509152747 | 64 | 44 | 5.0 | 10.0 | 0.00 | 0.00 | 0.00 | 24 | 1019.8 |
| 20260509151746 | 65 | 55 | 6.0 | 13.0 | 0.00 | 0.00 | 0.00 | 23 | 1019.9 |
| 20260509150746 | 67 | 100 | 5.0 | 8.0 | 0.00 | 0.00 | 0.00 | 23 | 1019.9 |
| 20260509145746 | 67 | 82 | 6.0 | 8.0 | 0.00 | 0.00 | 0.00 | 23 | 1020.0 |
| 20260509144745 | 68 | 90 | 4.0 | 11.0 | 0.00 | 0.00 | 0.00 | 23 | 1019.9 |
| 20260509143745 | 67 | 52 | 6.0 | 7.0 | 0.00 | 0.00 | 0.00 | 23 | 1019.8 |
| 20260509142745 | 66 | 56 | 5.0 | 8.0 | 0.00 | 0.00 | 0.00 | 23 | 1019.9 |
| 20260509141745 | 68 | 63 | 7.0 | 10.0 | 0.00 | 0.00 | 0.00 | 23 | 1019.9 |
| 20260509140744 | 68 | 49 | 5.0 | 8.0 | 0.00 | 0.00 | 0.00 | 23 | 1019.9 |
| 20260509135744 | 68 | 38 | 5.0 | 8.0 | 0.00 | 0.00 | 0.00 | 23 | 1020.0 |
| 20260509134744 | 68 | 25 | 5.0 | 9.0 | 0.00 | 0.00 | 0.00 | 23 | 1020.0 |
| 20260509133743 | 68 | 1 | 4.0 | 4.0 | 0.00 | 0.00 | 0.00 | 23 | 1020.1 |
| 20260509132743 | 68 | 1 | 4.0 | 4.0 | 0.00 | 0.00 | 0.00 | 23 | 1020.2 |
| 20260509131743 | 68 | 25 | 4.0 | 8.0 | 0.00 | 0.00 | 0.00 | 23 | 1020.3 |
| 20260509130743 | 69 | 96 | 7.0 | 9.0 | 0.00 | 0.00 | 0.00 | 22 | 1020.3 |
| 20260509125742 | 67 | 108 | 5.0 | 6.0 | 0.00 | 0.00 | 0.00 | 23 | 1020.3 |
| 20260509124742 | 68 | 73 | 6.0 | 9.0 | 0.00 | 0.00 | 0.00 | 22 | 1020.4 |
| 20260509123742 | 69 | 101 | 7.0 | 9.0 | 0.00 | 0.00 | 0.00 | 22 | 1020.6 |
| 20260509122741 | 68 | 80 | 3.0 | 8.0 | 0.00 | 0.00 | 0.00 | 23 | 1020.6 |
| 20260509121741 | 70 | 99 | 5.0 | 8.0 | 0.00 | 0.00 | 0.00 | 22 | 1020.5 |
| 20260509120741 | 68 | 125 | 6.0 | 8.0 | 0.00 | 0.00 | 0.00 | 23 | 1020.7 |
| 20260509115740 | 68 | 100 | 3.0 | 10.0 | 0.00 | 0.00 | 0.00 | 23 | 1020.6 |
| 20260509114740 | 67 | 131 | 6.0 | 10.0 | 0.00 | 0.00 | 0.00 | 23 | 1020.7 |
| 20260509113740 | 66 | 108 | 5.0 | 8.0 | 0.00 | 0.00 | 0.00 | 23 | 1020.6 |
| 20260509112740 | 66 | 57 | 3.0 | 4.0 | 0.00 | 0.00 | 0.00 | 23 | 952.6 |
| 20260509111739 | 66 | 110 | 6.0 | 13.0 | 0.00 | 0.00 | 0.00 | 23 | 1020.8 |
| 20260509110739 | 67 | 64 | 5.0 | 8.0 | 0.00 | 0.00 | 0.00 | 23 | 1020.9 |
| 20260509105739 | 67 | 121 | 5.0 | 8.0 | 0.00 | 0.00 | 0.00 | 23 | 1021.0 |
| 20260509104738 | 68 | 133 | 5.0 | 8.0 | 0.00 | 0.00 | 0.00 | 23 | 1021.0 |
| 20260509103738 | 65 | 64 | 6.0 | 8.0 | 0.00 | 0.00 | 0.00 | 23 | 1021.0 |
| 20260509102738 | 64 | 144 | 5.0 | 6.0 | 0.00 | 0.00 | 0.00 | 24 | 1021.0 |
| 20260509101738 | 65 | 80 | 5.0 | 8.0 | 0.00 | 0.00 | 0.00 | 23 | 1021.1 |
| 20260509100737 | 64 | 69 | 6.0 | 8.0 | 0.00 | 0.00 | 0.00 | 24 | 1021.2 |
| 20260509095737 | 62 | 90 | 6.0 | 8.0 | 0.00 | 0.00 | 0.00 | 24 | 1021.1 |
| 20260509094737 | 64 | 90 | 6.0 | 9.0 | 0.00 | 0.00 | 0.00 | 24 | 1021.2 |
| 20260509093736 | 64 | 82 | 4.0 | 6.0 | 0.00 | 0.00 | 0.00 | 24 | 1021.3 |
| 20260509092736 | 64 | 89 | 6.0 | 8.0 | 0.00 | 0.00 | 0.00 | 24 | 1021.2 |
| 20260509091736 | 63 | 74 | 5.0 | 8.0 | 0.00 | 0.00 | 0.00 | 24 | 1021.3 |
| 20260509090735 | 64 | 111 | 3.0 | 5.0 | 0.00 | 0.00 | 0.00 | 24 | 1021.3 |
| 20260509085735 | 63 | 19 | 4.0 | 7.0 | 0.00 | 0.00 | 0.00 | 24 | 1021.2 |
| 20260509084735 | 62 | 72 | 5.0 | 9.0 | 0.00 | 0.00 | 0.00 | 24 | 1021.2 |
| 20260509083735 | 61 | 53 | 5.0 | 8.0 | 0.00 | 0.00 | 0.00 | 24 | 1021.3 |
| 20260509082734 | 62 | 74 | 4.0 | 8.0 | 0.00 | 0.00 | 0.00 | 24 | 1021.2 |
| 20260509081734 | 62 | 118 | 5.0 | 8.0 | 0.00 | 0.00 | 0.00 | 24 | 1021.0 |
| 20260509080734 | 61 | 90 | 8.0 | 8.0 | 0.00 | 0.00 | 0.00 | 24 | 1021.1 |
| 20260509075733 | 61 | 122 | 3.0 | 8.0 | 0.00 | 0.00 | 0.00 | 25 | 1021.0 |
| 20260509074733 | 61 | 83 | 4.0 | 8.0 | 0.00 | 0.00 | 0.00 | 24 | 1021.0 |
| 20260509073733 | 60 | 90 | 5.0 | 6.0 | 0.00 | 0.00 | 0.00 | 25 | 1021.0 |
| 20260509072733 | 60 | 57 | 4.0 | 5.0 | 0.00 | 0.00 | 0.00 | 25 | 1020.9 |
| 20260509071732 | 61 | 68 | 2.0 | 4.0 | 0.00 | 0.00 | 0.00 | 25 | 1021.0 |
| 20260509070732 | 59 | 81 | 3.0 | 4.0 | 0.00 | 0.00 | 0.00 | 25 | 1020.8 |
| 20260509065732 | 58 | 100 | 4.0 | 5.0 | 0.00 | 0.00 | 0.00 | 25 | 1020.8 |
| 20260509064731 | 57 | 28 | 5.0 | 8.0 | 0.00 | 0.00 | 0.00 | 26 | 1020.7 |
| 20260509063731 | 60 | 30 | 4.0 | 5.0 | 0.00 | 0.00 | 0.00 | 25 | 1021.0 |
| 20260509062731 | 58 | 55 | 4.0 | 5.0 | 0.00 | 0.00 | 0.00 | 25 | 1020.9 |
| 20260509061731 | 58 | 87 | 3.0 | 5.0 | 0.00 | 0.00 | 0.00 | 25 | 1020.8 |
| 20260509060730 | 57 | 94 | 3.0 | 4.0 | 0.00 | 0.00 | 0.00 | 26 | 1020.7 |
| 20260509055730 | 56 | 81 | 3.0 | 4.0 | 0.00 | 0.00 | 0.00 | 26 | 1020.7 |
| 20260509054730 | 56 | 59 | 2.0 | 5.0 | 0.00 | 0.00 | 0.00 | 26 | 1020.7 |
| 20260509053729 | -25 | 0 | 0.0 | 0.0 | 0.00 | 0.00 | 0.00 | 13 | 953.5 |
| 20260509052729 | -25 | 0 | 0.0 | 0.0 | 0.00 | 0.00 | 0.00 | 13 | 953.6 |
| 20260509051729 | -25 | 45 | 0.0 | 8.0 | 0.00 | 0.00 | 0.00 | 13 | 953.6 |
| 20260509050728 | -25 | 45 | 8.0 | 8.0 | 0.00 | 0.00 | 0.00 | 13 | 953.6 |
| 20260509045728 | -25 | 45 | 8.0 | 8.0 | 0.00 | 0.00 | 0.00 | 13 | 953.7 |
| 20260509044728 | -25 | 45 | 8.0 | 8.0 | 0.00 | 0.00 | 0.00 | 13 | 953.7 |
| 20260509043728 | -25 | 45 | 8.0 | 8.0 | 0.00 | 0.00 | 0.00 | 13 | 953.7 |
| 20260509042727 | -25 | 45 | 8.0 | 8.0 | 0.00 | 0.00 | 0.00 | 13 | 953.7 |
| 20260509041727 | -25 | 45 | 8.0 | 8.0 | 0.00 | 0.00 | 0.00 | 13 | 953.6 |
| 20260509040727 | -25 | 45 | 8.0 | 8.0 | 0.00 | 0.00 | 0.00 | 13 | 953.6 |
| 20260509035726 | -25 | 45 | 8.0 | 8.0 | 0.00 | 0.00 | 0.00 | 13 | 953.6 |
| 20260509034726 | -25 | 45 | 8.0 | 8.0 | 0.00 | 0.00 | 0.00 | 13 | 953.6 |
| 20260509033726 | -25 | 45 | 8.0 | 8.0 | 0.00 | 0.00 | 0.00 | 13 | 953.6 |
| 20260509032725 | -25 | 45 | 8.0 | 8.0 | 0.00 | 0.00 | 0.00 | 13 | 953.6 |
| 20260509031725 | -25 | 45 | 8.0 | 8.0 | 0.00 | 0.00 | 0.00 | 13 | 953.6 |
| 20260509030725 | -25 | 45 | 8.0 | 8.0 | 0.00 | 0.00 | 0.00 | 13 | 953.6 |
| 20260509025725 | -25 | 45 | 8.0 | 8.0 | 0.00 | 0.00 | 0.00 | 13 | 953.5 |
| 20260509024724 | -25 | 45 | 8.0 | 8.0 | 0.00 | 0.00 | 0.00 | 13 | 953.5 |
| 20260509023724 | -25 | 45 | 8.0 | 8.0 | 0.00 | 0.00 | 0.00 | 13 | 953.5 |
| 20260509022724 | -25 | 45 | 8.0 | 8.0 | 0.00 | 0.00 | 0.00 | 13 | 953.5 |
| 20260509021723 | -25 | 45 | 8.0 | 8.0 | 0.00 | 0.00 | 0.00 | 13 | 953.4 |
| 20260509020723 | -25 | 45 | 8.0 | 8.0 | 0.00 | 0.00 | 0.00 | 13 | 953.5 |
| 20260509015723 | -25 | 45 | 8.0 | 8.0 | 0.00 | 0.00 | 0.00 | 13 | 953.5 |
| 20260509014723 | -25 | 45 | 8.0 | 8.0 | 0.00 | 0.00 | 0.00 | 13 | 953.5 |
| 20260509013722 | -25 | 45 | 8.0 | 8.0 | 0.00 | 0.00 | 0.00 | 13 | 953.5 |
| 20260509012722 | -25 | 45 | 8.0 | 8.0 | 0.00 | 0.00 | 0.00 | 13 | 953.5 |
| 20260509011722 | -25 | 45 | 8.0 | 8.0 | 0.00 | 0.00 | 0.00 | 13 | 953.4 |
| 20260509010721 | -25 | 45 | 8.0 | 8.0 | 0.00 | 0.00 | 0.00 | 13 | 953.4 |
| 20260509005721 | -25 | 45 | 8.0 | 8.0 | 0.00 | 0.00 | 0.00 | 13 | 953.4 |
| 20260509004721 | -25 | 45 | 8.0 | 8.0 | 0.00 | 0.00 | 0.00 | 13 | 953.4 |
| 20260509003721 | -25 | 45 | 8.0 | 8.0 | 0.00 | 0.00 | 0.00 | 13 | 953.4 |
| 20260509002720 | -25 | 45 | 8.0 | 8.0 | 0.00 | 0.00 | 0.00 | 13 | 953.4 |
| 20260509001720 | -25 | 45 | 8.0 | 8.0 | 0.00 | 0.00 | 0.00 | 13 | 953.4 |
| 20260509000720 | -25 | 45 | 8.0 | 8.0 | 0.00 | 0.00 | 0.00 | 13 | 953.4 |
| 20260508235719 | -25 | 45 | 8.0 | 8.0 | 0.00 | 0.00 | 0.00 | 13 | 953.5 |
| 20260508234719 | -25 | 45 | 8.0 | 8.0 | 0.00 | 0.00 | 0.00 | 13 | 953.5 |
| 20260508233719 | -25 | 45 | 8.0 | 8.0 | 0.00 | 0.00 | 0.00 | 13 | 953.5 |
| 20260508232719 | -25 | 45 | 8.0 | 8.0 | 0.00 | 0.00 | 0.00 | 13 | 953.5 |
| 20260508231718 | -25 | 45 | 8.0 | 8.0 | 0.00 | 0.00 | 0.00 | 13 | 953.5 |
| 20260508230718 | -25 | 45 | 8.0 | 8.0 | 0.00 | 0.00 | 0.00 | 13 | 953.4 |
| 20260508225718 | -25 | 45 | 8.0 | 8.0 | 0.00 | 0.00 | 0.00 | 13 | 953.4 |
| 20260508224717 | -25 | 45 | 8.0 | 8.0 | 0.00 | 0.00 | 0.00 | 13 | 953.4 |
| 20260508223717 | -25 | 45 | 8.0 | 8.0 | 0.00 | 0.00 | 0.00 | 13 | 953.4 |
| 20260508222717 | -25 | 45 | 8.0 | 8.0 | 0.00 | 0.00 | 0.00 | 13 | 953.4 |
| 20260508221716 | -25 | 45 | 8.0 | 8.0 | 0.00 | 0.00 | 0.00 | 13 | 953.4 |
| 20260508220716 | -25 | 45 | 8.0 | 8.0 | 0.00 | 0.00 | 0.00 | 13 | 953.4 |
| 20260508215716 | -25 | 45 | 8.0 | 8.0 | 0.00 | 0.00 | 0.00 | 13 | 953.4 |
| 20260508214716 | -25 | 45 | 8.0 | 8.0 | 0.00 | 0.00 | 0.00 | 13 | 953.4 |
| 20260508213715 | -25 | 45 | 8.0 | 8.0 | 0.00 | 0.00 | 0.00 | 13 | 953.4 |
| 20260508212715 | -25 | 45 | 8.0 | 8.0 | 0.00 | 0.00 | 0.00 | 13 | 953.4 |
| 20260508211715 | -25 | 45 | 8.0 | 8.0 | 0.00 | 0.00 | 0.00 | 13 | 953.3 |
| 20260508210714 | -25 | 45 | 8.0 | 8.0 | 0.00 | 0.00 | 0.00 | 13 | 953.4 |
| 20260508205714 | -25 | 45 | 8.0 | 8.0 | 0.00 | 0.00 | 0.00 | 13 | 953.3 |
| 20260508204714 | -25 | 45 | 8.0 | 8.0 | 0.00 | 0.00 | 0.00 | 13 | 953.3 |
| 20260508203714 | -25 | 45 | 8.0 | 8.0 | 0.00 | 0.00 | 0.00 | 13 | 953.3 |
| 20260508202713 | -25 | 45 | 8.0 | 8.0 | 0.00 | 0.00 | 0.00 | 13 | 953.2 |
| 20260508201713 | -25 | 45 | 8.0 | 8.0 | 0.00 | 0.00 | 0.00 | 13 | 953.2 |
| 20260508200713 | 52 | 45 | 8.0 | 8.0 | 0.00 | 0.00 | 0.00 | 27 | 1019.9 |
| 20260508195712 | -25 | 45 | 8.0 | 8.0 | 0.00 | 0.00 | 0.00 | 13 | 953.0 |
| 20260508194712 | -25 | 45 | 8.0 | 8.0 | 0.00 | 0.00 | 0.00 | 13 | 952.9 |
| 20260508193712 | -25 | 45 | 8.0 | 8.0 | 0.00 | 0.00 | 0.00 | 13 | 952.9 |
| 20260508192711 | -25 | 45 | 8.0 | 8.0 | 0.00 | 0.00 | 0.00 | 13 | 952.9 |
| 20260508191711 | -25 | 45 | 8.0 | 8.0 | 0.00 | 0.00 | 0.00 | 13 | 952.8 |
| 20260508190711 | -25 | 45 | 4.0 | 8.0 | 0.00 | 0.00 | 0.00 | 13 | 952.7 |
| 20260508185711 | -25 | 45 | 3.0 | 3.0 | 0.00 | 0.00 | 0.00 | 13 | 952.6 |
| 20260508184710 | 55 | 45 | 3.0 | 3.0 | 0.00 | 0.00 | 0.00 | 26 | 1019.5 |
| 20260508183710 | 55 | 45 | 3.0 | 3.0 | 0.00 | 0.00 | 0.00 | 26 | 1019.4 |
| 20260508182710 | 56 | 78 | 3.0 | 5.0 | 0.00 | 0.00 | 0.00 | 26 | 1019.3 |
| 20260508181709 | 56 | 9 | 5.0 | 6.0 | 0.00 | 0.00 | 0.00 | 26 | 1019.2 |
| 20260508180709 | 56 | 1 | 6.0 | 6.0 | 0.00 | 0.00 | 0.00 | 26 | 1019.1 |
| 20260508175709 | -25 | 32 | 6.0 | 9.0 | 0.00 | 0.00 | 0.00 | 13 | 951.8 |
| 20260508174709 | 61 | 46 | 9.0 | 9.0 | 0.00 | 0.00 | 0.00 | 24 | 1019.2 |
| 20260508173708 | 61 | 46 | 9.0 | 9.0 | 0.00 | 0.00 | 0.00 | 24 | 1019.1 |
| 20260508172708 | 61 | 127 | 7.0 | 9.0 | 0.00 | 0.00 | 0.00 | 24 | 1019.0 |
| 20260508171708 | 61 | 135 | 7.0 | 7.0 | 0.00 | 0.00 | 0.00 | 24 | 1018.9 |
| 20260508170707 | 61 | 135 | 7.0 | 7.0 | 0.00 | 0.00 | 0.00 | 24 | 1018.9 |
| 20260508165707 | 61 | 135 | 7.0 | 7.0 | 0.00 | 0.00 | 0.00 | 24 | 1018.9 |
| 20260508164707 | 61 | 124 | 6.0 | 7.0 | 0.00 | 0.00 | 0.00 | 24 | 1018.8 |
| 20260508163706 | 63 | 97 | 5.0 | 6.0 | 0.00 | 0.00 | 0.00 | 24 | 1019.1 |